Overview Statistics Trail Chart Weather Telemetry Raw packets
 

This is the latest recevied weather packets stored in our database for station/object XE2RCS-1. If no packets are shown the sender has not sent any weather packets the latest 10 day(s).

<< 46 47 48 49 50 51 52 >>
Time Temp. Humidity Pressure Rain* Wind** Luminosity Snow
1787963348 21.67° C 79% 1019 hPa 0 mm - - -
1787962747 21.67° C 80% 1019 hPa 0 mm - - -
1787962146 21.67° C 80% 1019 hPa 0 mm - - -
1787961546 21.11° C 67% 1017 hPa 0 mm - - -
1787960945 20.56° C 67% 1017 hPa 0 mm - - -
1787960345 20.56° C 70% 1017 hPa 0 mm - - -
1787959744 23.33° C 54% 1017 hPa 0 mm - - -
1787959143 24.44° C 54% 1017 hPa 0 mm - - -
1787958542 25.56° C 54% 1016 hPa 0 mm - - -
1787957942 22.22° C 10% - 0 mm - - -
1787957341 23.33° C 10% - 0 mm - - -
1787956741 24.44° C 10% - 0 mm - - -
1787956140 24.44° C 10% - 0 mm - - -
1787955539 28.33° C 68% 1014 hPa 0 mm - - -
1787954939 29.44° C 68% 1014 hPa 0 mm - - -
1787954338 29.44° C 69% 1014 hPa 0 mm - - -
1787953738 29.44° C 71% 1014 hPa 0 mm - - -
1787953137 29.44° C 76% 1014 hPa 0 mm - - -
1787952536 29.44° C 76% 1015 hPa 0 mm - - -
1787951936 30° C 76% 1015 hPa 0 mm - - -
1787951335 26.67° C 57% 1015 hPa 0 mm - - -
1787950735 27.78° C 57% 1015 hPa 0 mm - - -
1787950134 25.56° C 79% 1015 hPa 0 mm - - -
1787949533 26.67° C 79% 1015 hPa 0 mm - - -
1787948932 27.78° C 79% 1016 hPa 0 mm - - -

* Rain latest hour (hover to see other rain measurements)
** Current wind speed in m/s (hover to see current wind gust speed)